Find Starlink 1545

NORAD ID: 46156 Int'l Des: 2020-057 Owner: SPXS Country: US Constellation: starlink operational
LEOCIRCULAR

当前视图

正在加载3D地球...

About Starlink 1545

Starlink 1545 (NORAD 46156) is a starlink constellation satellite (v1.0) launched Aug 18, 2020 by SPXS of US. It operates in LEO, CIRCULAR orbit with a mass of 260.00 kg.

关于 Starlink 1545

正在加载描述...

即将过境

Passes for default location (London). Set your location on the main map for personalized predictions.

高度历史

Loading altitude history...

两行轨道根数

1 46156U 20057AR 26170.33335648 .00345596 56216-4 10416-2 0 9997
2 46156 53.0347 113.0925 0002768 196.5448 39.5251 15.91718237 6013
Epoch: Jun 19, 2026 • Age: 7 hours

当前状态

高度 301.0 km
速度 7.73 km/s
星下点 -8.44°S, 20.04°W
发射日期 Aug 18, 2020
运行时间 5.8 years
类型 internet

技术详情

分类 Payload
质量 260.00 kg
干质量 248.00 kg
总质量 260.00 kg
长度 0.20 m
直径 2.80 m
跨度 9.00 m
形状 Box + pan
制造商 SPXS
平台类型 Starlink
阶段状态 In Orbit
所有者/国家 SPXS/US

Most Searched